| time (UTC) | temp F | wind direction | speed MPH | gust MPH | rain 1hr in | rain 24hr in | rain mn in | humidity % | barometer mb |
| 20260506230038 | 54 | 235 | 4.0 | 10.0 | 0.01 | 0.09 | 0.09 | 98 | 1007.5 |
| 20260506224546 | 54 | 174 | 3.0 | 11.0 | 0.01 | 0.09 | 0.09 | 98 | 1007.5 |
| 20260506223043 | 54 | 195 | 2.0 | 10.0 | 0.02 | 0.09 | 0.09 | 98 | 1007.3 |
| 20260506221543 | 54 | 181 | 4.0 | 18.0 | 0.02 | 0.08 | 0.08 | 98 | 1007.3 |
| 20260506220044 | 54 | 178 | 2.0 | 11.0 | 0.03 | 0.08 | 0.08 | 97 | 1007.3 |
| 20260506214540 | 54 | 92 | 7.0 | 15.0 | 0.04 | 0.08 | 0.08 | 97 | 1007.5 |
| 20260506213102 | 55 | 218 | 4.0 | 15.0 | 0.03 | 0.07 | 0.07 | 97 | 1007.8 |
| 20260506211536 | 55 | 224 | 4.0 | 15.0 | 0.02 | 0.06 | 0.06 | 97 | 1007.8 |
| 20260506210045 | 55 | 214 | 3.0 | 12.0 | 0.01 | 0.05 | 0.05 | 97 | 1008.0 |
| 20260506204549 | 55 | 89 | 5.0 | 14.0 | 0.01 | 0.04 | 0.04 | 96 | 1008.1 |
| 20260506203043 | 55 | 198 | 5.0 | 15.0 | 0.01 | 0.04 | 0.04 | 96 | 1008.2 |
| 20260506201542 | 55 | 202 | 6.0 | 15.0 | 0.02 | 0.04 | 0.04 | 96 | 1008.4 |
| 20260506200048 | 55 | 174 | 4.0 | 17.0 | 0.03 | 0.04 | 0.04 | 96 | 1008.5 |
| 20260506194546 | 56 | 203 | 7.0 | 21.0 | 0.03 | 0.03 | 0.03 | 95 | 1008.7 |
| 20260506193046 | 56 | 261 | 4.0 | 15.0 | 0.03 | 0.03 | 0.03 | 95 | 1008.8 |
| 20260506191543 | 56 | 191 | 4.0 | 14.0 | 0.02 | 0.02 | 0.02 | 93 | 1009.0 |
| 20260506190044 | 57 | 155 | 3.0 | 13.0 | 0.00 | 0.00 | 0.00 | 91 | 1008.8 |
| 20260506184542 | 59 | 165 | 5.0 | 14.0 | 0.00 | 0.00 | 0.00 | 87 | 1009.0 |
| 20260506183039 | 60 | 258 | 4.0 | 15.0 | 0.00 | 0.00 | 0.00 | 84 | 1009.3 |
| 20260506181544 | 60 | 195 | 5.0 | 16.0 | 0.00 | 0.00 | 0.00 | 82 | 1009.3 |
| 20260506180055 | 61 | 152 | 5.0 | 14.0 | 0.00 | 0.00 | 0.00 | 81 | 1009.7 |
| 20260506174553 | 62 | 114 | 6.0 | 19.0 | 0.00 | 0.00 | 0.00 | 80 | 1009.6 |
| 20260506173044 | 63 | 209 | 8.0 | 21.0 | 0.00 | 0.00 | 0.00 | 78 | 1009.9 |
| 20260506171540 | 64 | 167 | 6.0 | 23.0 | 0.00 | 0.00 | 0.00 | 76 | 1010.1 |
| 20260506170050 | 65 | 252 | 7.0 | 16.0 | 0.00 | 0.00 | 0.00 | 74 | 1010.1 |
| 20260506164544 | 65 | 171 | 7.0 | 15.0 | 0.00 | 0.00 | 0.00 | 74 | 1010.2 |
| 20260506163104 | 65 | 208 | 7.0 | 15.0 | 0.00 | 0.00 | 0.00 | 75 | 1010.2 |
| 20260506161544 | 64 | 230 | 7.0 | 25.0 | 0.00 | 0.00 | 0.00 | 76 | 1010.6 |
| 20260506160043 | 65 | 197 | 6.0 | 27.0 | 0.00 | 0.00 | 0.00 | 74 | 1010.9 |
| 20260506154606 | 66 | 137 | 7.0 | 19.0 | 0.00 | 0.00 | 0.00 | 74 | 1011.0 |
| 20260506153054 | 67 | 171 | 6.0 | 20.0 | 0.00 | 0.00 | 0.00 | 71 | 1011.0 |
| 20260506151547 | 66 | 155 | 7.0 | 19.0 | 0.00 | 0.00 | 0.00 | 74 | 1010.9 |
| 20260506150044 | 65 | 158 | 9.0 | 23.0 | 0.00 | 0.00 | 0.00 | 75 | 1011.1 |
| 20260506144546 | 65 | 112 | 9.0 | 23.0 | 0.00 | 0.00 | 0.00 | 75 | 1011.4 |
| 20260506143051 | 65 | 311 | 6.0 | 17.0 | 0.00 | 0.00 | 0.00 | 76 | 1011.0 |
| 20260506141542 | 65 | 216 | 6.0 | 21.0 | 0.00 | 0.00 | 0.00 | 76 | 1011.2 |
| 20260506140036 | 64 | 212 | 6.0 | 13.0 | 0.00 | 0.00 | 0.00 | 77 | 1011.2 |
| 20260506134544 | 64 | 224 | 4.0 | 13.0 | 0.00 | 0.00 | 0.00 | 77 | 1010.9 |
| 20260506133044 | 63 | 196 | 3.0 | 21.0 | 0.00 | 0.00 | 0.00 | 79 | 1011.2 |
| 20260506131545 | 62 | 223 | 7.0 | 19.0 | 0.00 | 0.00 | 0.00 | 80 | 1011.6 |
| 20260506130044 | 61 | 139 | 6.0 | 18.0 | 0.00 | 0.00 | 0.00 | 81 | 1011.4 |
| 20260506124551 | 61 | 217 | 3.0 | 11.0 | 0.00 | 0.00 | 0.00 | 82 | 1011.5 |
| 20260506123036 | 60 | 198 | 8.0 | 22.0 | 0.00 | 0.00 | 0.00 | 84 | 1011.5 |
| 20260506121541 | 59 | 150 | 6.0 | 13.0 | 0.00 | 0.00 | 0.00 | 85 | 1011.4 |
| 20260506120055 | 58 | 188 | 2.0 | 12.0 | 0.00 | 0.00 | 0.00 | 88 | 1011.7 |
| 20260506114547 | 57 | 210 | 5.0 | 13.0 | 0.00 | 0.00 | 0.00 | 89 | 1011.8 |
| 20260506113042 | 57 | 287 | 2.0 | 11.0 | 0.00 | 0.00 | 0.00 | 90 | 1011.9 |
| 20260506111542 | 56 | 174 | 3.0 | 11.0 | 0.00 | 0.00 | 0.00 | 91 | 1011.9 |
| 20260506110055 | 56 | 200 | 3.0 | 13.0 | 0.00 | 0.00 | 0.00 | 92 | 1011.9 |
| 20260506104544 | 56 | 205 | 4.0 | 13.0 | 0.00 | 0.00 | 0.00 | 92 | 1011.9 |
| 20260506103044 | 56 | 175 | 2.0 | 12.0 | 0.00 | 0.00 | 0.00 | 92 | 1011.6 |
| 20260506101544 | 55 | 156 | 5.0 | 13.0 | 0.00 | 0.00 | 0.00 | 93 | 1011.6 |
| 20260506100045 | 55 | 219 | 4.0 | 13.0 | 0.00 | 0.00 | 0.00 | 93 | 1011.6 |
| 20260506094559 | 55 | 221 | 5.0 | 15.0 | 0.00 | 0.00 | 0.00 | 93 | 1011.5 |
| 20260506093052 | 55 | 208 | 6.0 | 14.0 | 0.00 | 0.00 | 0.00 | 93 | 1011.7 |
| 20260506091545 | 55 | 211 | 6.0 | 15.0 | 0.00 | 0.00 | 0.00 | 92 | 1011.7 |
| 20260506090043 | 55 | 245 | 4.0 | 16.0 | 0.00 | 0.00 | 0.00 | 92 | 1011.7 |
| 20260506084546 | 55 | 160 | 7.0 | 12.0 | 0.00 | 0.00 | 0.00 | 92 | 1011.9 |
| 20260506083040 | 56 | 195 | 3.0 | 14.0 | 0.00 | 0.00 | 0.00 | 91 | 1012.1 |
| 20260506081540 | 56 | 233 | 7.0 | 13.0 | 0.00 | 0.00 | 0.00 | 91 | 1012.1 |
| 20260506073047 | 56 | 153 | 5.0 | 13.0 | 0.00 | 0.00 | 0.00 | 90 | 1011.9 |
| 20260506071544 | 57 | 217 | 4.0 | 17.0 | 0.00 | 0.00 | 0.00 | 89 | 1012.0 |
| 20260506061545 | 57 | 272 | 6.0 | 16.0 | 0.00 | 0.00 | 0.00 | 88 | 1011.9 |
| 20260506044550 | 57 | 217 | 6.0 | 15.0 | 0.00 | 0.00 | 0.00 | 84 | 1012.4 |
| 20260506043044 | 57 | 264 | 2.0 | 17.0 | 0.00 | 0.00 | 0.00 | 83 | 1012.4 |
| 20260506041553 | 57 | 1 | 5.0 | 15.0 | 0.00 | 0.00 | 0.00 | 83 | 1012.5 |
| 20260506040100 | 57 | 235 | 4.0 | 14.0 | 0.00 | 0.00 | 0.00 | 82 | 1012.7 |
| 20260506034538 | 58 | 139 | 4.0 | 14.0 | 0.00 | 0.00 | 0.00 | 81 | 1012.4 |
| 20260506033045 | 58 | 189 | 4.0 | 11.0 | 0.00 | 0.00 | 0.00 | 80 | 1012.4 |
| 20260506031554 | 58 | 20 | 6.0 | 14.0 | 0.00 | 0.00 | 0.00 | 80 | 1012.3 |
| 20260506030042 | 58 | 61 | 7.0 | 14.0 | 0.00 | 0.00 | 0.00 | 79 | 1012.2 |
| 20260506024540 | 58 | 258 | 3.0 | 11.0 | 0.00 | 0.00 | 0.00 | 78 | 1012.3 |
| 20260506023040 | 59 | 248 | 7.0 | 20.0 | 0.00 | 0.00 | 0.00 | 77 | 1012.1 |
| 20260506021551 | 59 | 214 | 4.0 | 18.0 | 0.00 | 0.00 | 0.00 | 77 | 1012.2 |
| 20260506020044 | 59 | 179 | 6.0 | 17.0 | 0.00 | 0.00 | 0.00 | 77 | 1012.2 |
| 20260506014544 | 59 | 343 | 5.0 | 13.0 | 0.00 | 0.00 | 0.00 | 77 | 1012.1 |
| 20260506013045 | 58 | 140 | 5.0 | 13.0 | 0.00 | 0.00 | 0.00 | 76 | 1012.0 |
| 20260506011543 | 58 | 140 | 5.0 | 18.0 | 0.00 | 0.00 | 0.00 | 77 | 1012.0 |
| 20260506010053 | 58 | 202 | 5.0 | 19.0 | 0.00 | 0.00 | 0.00 | 78 | 1011.8 |
| 20260506004548 | 57 | 248 | 7.0 | 15.0 | 0.00 | 0.00 | 0.00 | 80 | 1011.7 |
| 20260506003045 | 57 | 169 | 4.0 | 11.0 | 0.00 | 0.00 | 0.00 | 81 | 1011.2 |
| 20260506001544 | 57 | 96 | 4.0 | 11.0 | 0.00 | 0.00 | 0.00 | 80 | 1011.2 |
| 20260506000044 | 56 | 236 | 4.0 | 13.0 | 0.00 | 0.00 | 0.00 | 81 | 1010.8 |
| 20260505234550 | 56 | 237 | 6.0 | 13.0 | 0.00 | 0.00 | 0.00 | 81 | 1010.3 |
| 20260505233042 | 57 | 232 | 4.0 | 12.0 | 0.00 | 0.00 | 0.00 | 80 | 1010.0 |
| 20260505231546 | 58 | 113 | 5.0 | 15.0 | 0.00 | 0.00 | 0.00 | 78 | 1010.0 |